Lid_Strength_Index
5 5 5 7 8 6 9 8 10 9 8 7 6 6 5 5 5 5 4 4 3 3 2 2 2 2 1 1 1 1 1 2
6 5 5 6 5 8 8 12 13 10 10 9 8 7 6 6 5 5 4 4 3 3 2 2 2 1 1 1 1 1 1 1
6 7 7 7 7 7 7 8 12 12 10 6 7 6 6 6 5 5 4 4 3 3 2 2 1 1 1 1 1 1 1 0
8 6 5 6 7 7 10 11 9 9 10 6 6 6 5 5 5 4 4 3 3 3 2 2 2 2 2 1 1 1 0 1
9 7 6 7 6 6 6 7 9 11 9 6 6 6 5 5 5 4 4 3 3 3 3 2 2 1 1 1 1 1 0 1
11 9 7 8 7 7 7 9 9 8 8 6 7 7 6 6 5 5 4 4 3 3 3 3 2 2 1 1 0 1 1 1
7 7 7 7 7 7 8 7 9 7 8 7 7 6 5 5 5 5 4 4 3 3 3 2 2 2 1 1 1 1 1 1
8 7 7 8 7 7 7 7 7 7 8 6 6 5 5 5 5 5 4 4 3 3 3 2 2 2 1 1 1 0 1 1
10 8 8 10 7 7 7 6 7 9 8 6 7 6 6 5 5 5 4 4 3 3 2 2 2 1 1 1 0 0 0 0
10 9 13 8 6 6 7 7 6 7 7 6 6 5 5 4 4 4 4 3 3 2 2 1 1 1 1 0 0 0 0 0
10 10 8 7 7 7 7 7 6 7 6 6 5 5 6 4 3 3 3 3 2 2 1 1 1 0 0 1 0 0 0 0
9 11 12 7 6 5 5 9 5 5 6 6 6 8 6 3 3 3 2 2 1 1 1 1 1 1 1 1 1 1 0 0
9 10 8 6 6 5 11 9 5 5 5 5 6 5 4 3 3 2 2 2 1 1 1 1 0 0 1 1 1 0 -0 -0
9 10 12 5 6 8 6 5 5 5 5 5 4 4 4 3 3 2 2 2 1 1 1 0 -0 0 1 1 0 0 0 0
8 9 6 4 5 4 4 5 5 4 4 4 4 4 3 3 2 2 2 2 1 1 1 0 0 1 1 1 0 0 0 0
8 6 6 5 4 4 3 4 3 3 3 3 4 3 3 2 2 2 2 2 1 1 2 2 1 0 0 0 -0 0 1 1
7 6 5 5 4 4 4 3 3 3 3 3 3 3 3 2 2 2 2 2 1 2 2 1 1 1 0 -0 -0 1 1 1
7 4 5 4 3 3 3 3 3 3 3 2 2 3 2 2 2 2 2 1 2 1 1 1 1 1 0 -0 -0 1 1 1
5 3 3 3 3 2 3 3 3 2 2 3 2 2 2 2 2 2 2 1 2 2 1 1 1 1 0 -0 0 1 1 1